EST,Max TemperatureF,Mean TemperatureF,Min TemperatureF,Max Dew PointF,MeanDew PointF,Min DewpointF,Max Humidity, Mean Humidity, Min Humidity, Max Sea Level PressureIn, Mean Sea Level PressureIn, Min Sea Level PressureIn, Max VisibilityMiles, Mean VisibilityMiles, Min VisibilityMiles, Max Wind SpeedMPH, Mean Wind SpeedMPH, Max Gust SpeedMPH,PrecipitationIn, CloudCover, Events, WindDirDegrees
2011-11-1,66,56,46,57,50,46,100,85,49,30.28,30.21,30.14,10,10,10,15,6,28,0.77,0,,10
2011-11-2,71,58,46,59,52,45,100,87,64,30.29,30.24,30.21,10,10,10,16,4,26,0.63,1,,21
2011-11-3,77,66,55,64,59,55,100,88,54,30.21,30.10,29.93,10,9,4,7,1,,0.70,3,,335
2011-11-4,64,56,48,64,52,45,100,86,52,30.01,29.91,29.83,10,9,2,17,5,24,0.70,3,,269
2011-11-5,59,54,48,48,47,45,94,81,67,30.21,30.11,30.01,10,10,10,17,6,26,0.77,5,,353
2011-11-6,64,58,51,61,52,46,100,84,77,30.30,30.24,30.19,10,9,2,15,10,24,0.70,7,,5
2011-11-7,71,66,60,66,63,61,100,96,78,30.27,30.22,30.18,10,7,2,16,8,22,0.77,6,Rain,11
2011-11-8,75,66,57,66,61,57,100,94,69,30.18,30.13,30.09,10,9,2,13,4,20,0.77,2,,21
2011-11-9,75,60,46,59,53,46,100,91,47,30.12,30.04,29.97,10,7,0,8,1,14,0.77,0,,12
2011-11-10,77,59,41,63,45,32,100,76,41,30.06,29.96,29.86,10,8,0,17,4,24,0.77,1,,302
2011-11-11,62,47,32,39,32,25,100,71,24,30.26,30.16,30.05,10,9,1,17,8,25,0.77,0,,328
2011-11-12,68,48,28,50,38,27,100,84,40,30.34,30.28,30.26,10,6,0,8,1,,0.77,0,,65
2011-11-13,73,56,39,57,47,39,100,93,53,30.28,30.23,30.17,10,8,0,9,1,,0.77,1,,108
2011-11-14,80,61,42,64,54,43,100,90,48,30.20,30.14,30.07,10,5,0,9,1,,0.70,4,,158
2011-11-15,82,68,55,73,63,55,100,96,62,30.09,30.05,29.99,10,5,0,12,1,,0.77,5,Fog-Thunderstorm,167
2011-11-16,84,73,62,73,67,63,100,93,58,30.05,29.99,29.92,10,6,0,14,2,29,0.77,5,Fog,199
2011-11-17,77,65,53,73,61,34,100,82,47,30.23,30.04,29.93,10,8,1,14,5,24,0.77,4,Thunderstorm,265
2011-11-18,64,54,44,54,43,32,100,73,50,30.34,30.28,30.22,10,10,2,20,7,31,0.77,2,,30
2011-11-19,73,62,50,64,56,50,100,95,69,30.31,30.27,30.25,10,7,0,8,1,,0.77,3,,1
2011-11-20,80,66,51,66,58,52,100,93,58,30.32,30.27,30.24,10,5,0,12,1,,0.77,3,Fog,99
2011-11-21,78,64,50,64,57,50,100,93,57,30.31,30.24,30.19,10,7,0,14,1,15,0.77,0,,80
2011-11-22,80,66,51,72,61,52,100,97,65,30.20,30.15,30.09,10,8,0,9,1,,0.77,5,Fog,167
2011-11-23,75,66,55,70,64,52,100,92,73,30.13,30.05,29.96,10,9,1,14,4,22,0.70,3,Rain-Thunderstorm,238
2011-11-24,66,56,46,52,48,45,100,81,52,30.33,30.24,30.13,10,10,10,16,6,24,0.77,1,,15
2011-11-25,73,60,46,59,53,46,100,89,50,30.33,30.28,30.23,10,9,0,12,3,,0.70,2,Fog,37
2011-11-26,75,63,51,63,56,52,100,91,53,30.28,30.22,30.18,10,8,0,14,1,23,0.00,3,Fog,94
2011-11-27,78,64,51,63,60,52,100,85,50,30.17,30.08,29.98,10,10,9,13,2,,0.00,4,,128
2011-11-28,78,64,50,66,59,50,100,92,61,29.97,29.91,29.83,10,8,1,16,5,33,0.00,3,Rain,169
2011-11-29,60,50,41,54,47,41,100,93,59,30.02,29.96,29.91,10,7,0,12,2,,0.00,4,Fog-Rain,267
2011-11-30,57,46,33,46,38,34,100,81,51,30.14,30.06,30.01,10,10,5,12,4,14,0.00,2,,327